Tracking 18032 objects as of 24-March-2017
HD Live streaming from Space Station
objects crossing your sky now

AMSAT OSCAR 40

Track AMSAT OSCAR 40 now!
AMSAT OSCAR 40 is classified as:


NORAD ID: 26609
Int'l Code: 2000-072B
Perigee: 1,068.5 km
Apogee: 58,766.6 km
Inclination: 6.3 °
Period: 1,146.6 minutes
Semi major axis: 36288 km
RCS: 1.8057 m2 (large)
Launch date: November 16, 2000
Source: Germany (GER)
Launch site: FRENCH GUIANA (FRGUI)
Uplink (MHz):
Downlink (MHz):
Beacon (MHz): 2401.323
Mode: 400bps PSK
Call sign:
Status: Inactive

Your satellite tracking list
Your tracking list is empty





NASA's NSSDC Master Catalog

Two Line Element Set (TLE):
1 26609U 00072B   17081.89060720 -.00000316 +00000-0 +00000-0 0  9992
2 26609 006.2995 239.1527 7949902 095.2809 349.0109 01.25588204075135
Source of the keplerian elements: AFSPC